Regional Weather Roundup
Issued by NWS Portland, ME

Home | Current Version | Previous Version | Text Only | Print | Product List | Glossary On
Versions: 1 2 3 4 5 6 7 8 9 10 11 12 13 14 15 16 17 18 19 20 21 22 23 24 25 26 27 28 29 30 31 32 33 34 35 36 37 38 39 40 41 42 43 44 45 46 47 48 49 50
000
ASUS41 KGYX 021810
RWRGYX
WEATHER ROUNDUP FOR MAINE AND NEW HAMPSHIRE
NATIONAL WEATHER SERVICE GRAY ME
100 PM EST FRI DEC 02 2016

MEZ002-005-006-010-012-015-018-020-021-024-026-027-029-021900-
MAINE

CITY           SKY/WX    TMP DP  RH WIND       PRES   REMARKS
PORTLAND       MOSUNNY   50  32  50 W17       29.66F
6HR MIN TEMP:  34; 6HR MAX TEMP:  50;

SANFORD        MOSUNNY   50  32  50 W16G24    29.67F
BAR HARBOR     CLOUDY    46  36  68 CALM      29.64F
WISCASSET      CLOUDY    49  35  58 SW5       29.66F
6HR MIN TEMP:  30; 6HR MAX TEMP:  50;

ROCKLAND       MOSUNNY   48  35  60 W12       29.64F
FRYEBURG       CLOUDY    48  31  51 W12G21    29.64F
6HR MIN TEMP:  35; 6HR MAX TEMP:  50;

LEWISTONAUBURN CLOUDY    48  33  56 W7        29.64F
AUGUSTA        CLOUDY    47  31  53 SW5       29.63F
6HR MIN TEMP:  35; 6HR MAX TEMP:  47;

WATERVILLE     CLOUDY    46  34  62 SW7       29.60F
BANGOR         PTSUNNY   45  34  65 W6        29.63S
6HR MIN TEMP:  33; 6HR MAX TEMP:  45;

GREENVILLE       N/A     37  35  92 NW5       29.56S
6HR MIN TEMP:  33; 6HR MAX TEMP:  40;

MILLINOCKET    CLOUDY    40  34  79 NW5       29.61F
6HR MIN TEMP:  32; 6HR MAX TEMP:  41;

HOULTON        CLOUDY    34  32  92 CALM      29.60F
6HR MIN TEMP:  29; 6HR MAX TEMP:  34;

PRESQUE ISLE   LGT RAIN  36  32  87 NW3       29.61F
6HR MIN TEMP:  30; 6HR MAX TEMP:  36; 6HR PCP: TRACE;

FRENCHVILLE    NOT AVBL
CARIBOU        CLOUDY    34  29  82 N3        29.59F
6HR MIN TEMP:  28; 6HR MAX TEMP:  35;

$$

NHZ002-005-008-009-011-012-014-021900-
NEW HAMPSHIRE

CITY           SKY/WX    TMP DP  RH WIND       PRES   REMARKS
PORTSMOUTH     PTSUNNY   50  31  48 W14G24    29.67F
ROCHESTER      PTSUNNY   49  31  49 W10G18    29.67F
6HR MIN TEMP:  36; 6HR MAX TEMP:  49;

NASHUA         MOSUNNY   49  31  49 W9G31     29.72F
MANCHESTER     PTSUNNY   50  29  44 W16G25    29.70F
6HR MIN TEMP:  32; 6HR MAX TEMP:  50;

CONCORD        CLOUDY    49  31  49 W8        29.70F
6HR MIN TEMP:  28; 6HR MAX TEMP:  51;

LACONIA        CLOUDY    46  32  58 W12       29.67F
PLYMOUTH         N/A     46  32  58 W3        29.67S
BERLIN         CLOUDY    43  32  65 VRB3      29.62F
6HR MIN TEMP:  36; 6HR MAX TEMP:  44; 6HR PCP: TRACE;

WHITEFIELD     CLOUDY    43  32  65 SW10      29.63F
6HR MIN TEMP:  36; 6HR MAX TEMP:  43; 6HR PCP: TRACE;

JAFFREY        CLOUDY    44  29  55 SW14G21   29.72F
6HR MIN TEMP:  36; 6HR MAX TEMP:  44;

KEENE          CLOUDY    46  31  55 W9        29.73F
LEBANON        CLOUDY    47  33  58 W12G21    29.67F
6HR MIN TEMP:  37; 6HR MAX TEMP:  49;

MT WASHINGTON  SNOWSHWR  19  19 100 W46G54      N/A  VSB 0   WCI  -3
6HR MIN TEMP:  18; 6HR MAX TEMP:  20; 6HR PCP: TRACE;

$$

VTZ005-007-008-021900-
VERMONT

CITY           SKY/WX    TMP DP  RH WIND       PRES   REMARKS
ST JOHNSBURY     N/A     45  34  65 MISG      29.62F
MONTPELIER     LGT RAIN  41  34  76 W10       29.68F
BURLINGTON     CLOUDY    46  35  65 SW12      29.67S
$$

MAZ007-012-024-CTZ003-RIZ002-NYZ038-NYZ072-021900-
SOUTHERN NEW ENGLAND AND NY

CITY           SKY/WX    TMP DP  RH WIND       PRES   REMARKS
BOSTON         MOSUNNY   50  32  50 W15G23    29.74F
WORCESTER      CLOUDY    42  29  59 W16G22    29.74F
NANTUCKET      SUNNY     49  33  54 W17G30    29.77F
PROVIDENCE     MOSUNNY   50  29  44 W17G30    29.78F
HARTFORD       PTSUNNY   51  30  44 W13G24    29.79F
ALBANY         PTSUNNY   47  28  47 W18G25    29.79F
NEW YORK CITY  PTSUNNY   53  29  39 NW15G25   29.86F
$$

ANZ081-ANZ082-ANZ150-NHZ014-MEZ023>029-021900-
COASTAL MARINE OBSERVATIONS

STATION/POSITION TIME  TEMP    WIND        PRES    WAVE
                       AIR SEA DIR/SP/G            HT/PER
                 (UTC) (F)     (DEG/KT/KT) (MB)    (FT/S)
MOUNT DESERT ROC 1800   47                 1003.8F
MATINICUS ROCK   1700   46     240/ 10/ 10 1003.8F
ISLE OF SHOALS   1700   48     260/ 19/ 21 1005.3F
JEFFREYS LEDGE   1738      51                N/A     5/ 5
CASHES LEDGE BUO 1750   47 51  250/ 16/ 19 1004.5F   5/ 6
GEORGES BANK BUO 1750   49 52              1005.9F   9/ 8
$$

.............KEY..............
   WCI - WIND CHILL
   TC  - TEMPERATURE IN CELSIUS
   VSB - VISIBILITY IN MILES
   HX  - HEAT INDEX
   FAIR- INDICATES FEW OR NO CLOUDS BELOW 12,000 FT, WITH NO
         SIGNIFICANT WEATHER AND/OR OBSTRUCTIONS TO VISIBILITY.






USA.gov is the U.S. government's official web portal to all federal, state and local government web resources and services.